Regional Weather Roundup
Issued by NWS

Home | Current Version | Previous Version | Text Only | Print | Product List | Glossary On
Versions: 1 2 3 4 5 6 7 8 9 10 11 12 13 14 15 16 17 18 19 20 21 22 23 24 25 26 27 28 29 30 31 32 33 34 35 36 37 38 39 40 41 42 43 44 45 46 47 48 49 50
000
ASUS44 KMEG 160210
RWRTN
TENNESSEE HOURLY STATE WEATHER ROUNDUP
NATIONAL WEATHER SERVICE MEMPHIS TN
900 PM CDT MON SEP 15 2014

TNZ002-004-019-021-049-052-054-088>092-160300-
WEST TENNESSEE

CITY           SKY/WX    TMP DP  RH WIND       PRES   REMARKS
MEMPHIS INTL   LGT RAIN  75  65  70 SW5       30.12R
NWS MEMPHIS      N/A     72 N/A N/A MISG        N/A
JACKSON        CLOUDY    68  66  93 CALM      30.12R
DYERSBURG      MOCLDY    66  55  68 CALM      30.11S
UNION CITY     CLEAR     64  63  94 S5        30.09S
PARIS          CLEAR     63  61  94 CALM      30.12R
HUNTINGDON     CLOUDY    64  62  93 S5        30.11F
LEXINGTON      CLEAR     68  66  94 CALM      30.12S
SAVANNAH       CLEAR     70  70 100 CALM      30.13R
$$

TNZ008-025-027-028-033-062-065-066-160300-
NORTH MIDDLE TENNESSEE

CITY           SKY/WX    TMP DP  RH WIND       PRES   REMARKS
NASHVILLE      CLOUDY    68  63  84 CALM      30.13R
DICKSON        CLOUDY    64  63  94 CALM      30.14R
PORTLAND       PTCLDY    64  63  94 S6        30.11R
CLARKSVILLE    MOCLDY    68  61  78 SW5       30.11R
SMYRNA         CLOUDY    67  64  90 CALM      30.13S
MURFREESBORO   CLOUDY    70  65  84 CALM      30.12R
COOKEVILLE     CLEAR     66  64  94 CALM      30.14R
LIVINGSTON     CLOUDY    64  64 100 S3        30.15S
GALLATIN       CLOUDY    67  65  93 CALM      30.13R
CROSSVILLE     CLOUDY    67  63  87 CALM      30.18R
$$

TNZ061-075-076-078-094-096-097-160300-
SOUTH MIDDLE TENNESSEE

CITY           SKY/WX    TMP DP  RH WIND       PRES   REMARKS
LEWISBURG      CLOUDY    68  66  93 CALM      30.13R
FAYETTEVILLE   CLEAR     72  66  83 MISG      30.13S
TULLAHOMA      CLEAR     70  66  88 CALM      30.14S
WINCHESTER     CLEAR     72  70  94 CALM      30.13S
MCMINNVILLE    CLEAR     68  68 100 CALM      30.14R
COLUMBIA       CLEAR     70  70 100 CALM      30.13R
SHELBYVILLE    CLEAR     70  66  88 CALM      30.14R
$$

TNZ017-018-042-046-047-160300-
NORTHEAST TENNESSEE

CITY           SKY/WX    TMP DP  RH WIND       PRES   REMARKS
TRI CITIES     CLOUDY    67  63  87 CALM      30.15S
ELIZABETHTON   MOCLDY    64  63  94 CALM      30.17S
$$

TNZ012-013-036-069-073-074-160300-
CENTRAL EAST TENNESSEE

CITY           SKY/WX    TMP DP  RH WIND       PRES   REMARKS
KNOXVILLE      CLOUDY    72  68  87 CALM      30.13R
OAK RIDGE      CLOUDY    71  68  90 CALM      30.15R
GATLINBURG     MOCLDY    70  66  88 S3        30.13S
MORRISTOWN     CLEAR     66  66 100 CALM      30.16S
$$

TNZ083-085-099-160300-
SOUTHEAST TENNESSEE

CITY           SKY/WX    TMP DP  RH WIND       PRES   REMARKS
CHATTANOOGA    TSTM      72  70  93 N6        30.14R FOG
$$

SKY/WX REPORTED AS FAIR MEANS FEW OR NO CLOUDS BELOW
12 THOUSAND FEET.




USA.gov is the U.S. government's official web portal to all federal, state and local government web resources and services.